User: anonymous   Login
Location: Unspecified
(0.0000°N, 0.0000°E)
Time: 03:50:09
(UTC+00:00)
Language:

ICO F2 - Orbit

View from above orbital plane
View from above orbital plane
View from above satellite
View from above satellite

Ground track
Ground track

The orbit data is extracted from the following two-line orbital elements,

1 26857U 01026A   18292.31269100 -.00000005  00000-0  00000+0 0  9996
2 26857  44.8026 169.2187 0017171  84.3375 275.9226  3.92405076251440
Epoch (UTC): 19 October 2018 07:30:16
Eccentricity: 0.0017171
inclination: 44.8026°
perigee height: 10571 km
apogee height: 10630 km
right ascension of ascending node: 169.2187°
argument of perigee: 84.3375°
revolutions per day: 3.92405076
mean anomaly at epoch: 275.9226°
orbit number at epoch: 25144

The dashed part of the orbit path shows where the satellite is in the earth's shadow,  

DLR